User: anonymous   Login
Location: Unspecified
(0.0000°N, 0.0000°E)
Time: 03:43:53
(UTC+01:00)
Language:

BREEZE-M DEB (TANK) - Orbit

View from above orbital plane
View from above orbital plane
View from above satellite
View from above satellite

Ground track
Ground track

The orbit data is extracted from the following two-line orbital elements,

1 33374U 08044B   14330.15341396  .00002041  00000-0  50063-3 0  7856
2 33374 049.4128 217.9338 5459901 245.2299 327.2795 04.84722356108587
Epoch (UTC): 26 November 2014 03:40:54
Eccentricity: 0.5459901
inclination: 49.4128°
perigee height: 318 km
apogee height: 16422 km
right ascension of ascending node: 217.9338°
argument of perigee: 245.2299°
revolutions per day: 4.84722356
mean anomaly at epoch: 327.2795°
orbit number at epoch: 10858

The dashed part of the orbit path shows where the satellite is in the earth's shadow,  

DLR